Content
SEND FEEDBACK

Daily
Averages
Monthly
Summary
United States of America

CHICAGO, ILLINOIS


Home > North America > United States > Illinois
Elevation: 205 meters     Latitude: 41 59N     Longitude: 087 54W

WEATHER
 
SELECT A DAY
Number of Records: 195,110;   Date Range: 7/8/95 - 9/18/14
 
SHARE

PRINT THIS DATA

[ ← Previous Day ]
WEATHER ALMANAC - 22 MAY, 2013
[ Next Day → ]
[ °F ]   °C
Weather ElementAverageHighLow
Temperature18.4 °C22.8 °C (4:52 pm)11.7 °C (10:52 pm)
Dewpoint15.7 °C19 °C (1:12 am)10.6 °C (9:52 pm)
Humidity85.1 %100 % (4:09 am)55 % (4:52 pm)
Barometer1005.1 hPa1008.5 hPa (11:52 pm)1003.4 hPa (8:52 am)
Wind Speed10.3 km/h20.4 km/h (5:52 pm)
Wind Gust33.3 km/h (1:03 pm)
Weather ElementAverage
Visibility9.7 km
Wind DirectionSSE (167.1 °)

Weather ElementTotal
Precipitation105.92 mm
Heating Degree Days1.1 (Base 18.3)
Growing Degree Days7.3 (Base 10)
Averaged from 49 records on 22 May, 2013
WEATHER CONDITIONS BREAKOUT
WIND DIRECTION BREAKOUT
WEATHER BY HOUR - 22 MAY, 2013
[ °F ]   °C
Local TimeTemperatureDewpointHumidityBarometerVisibilityWind DirectionWind SpeedGust SpeedPrecipitationEventsConditions
12:52 AM20.6 °C18.3 °C87 %1005.8 hPa6.4 kmSouth (190°)14.8 km/h0.25 mmRain-ThunderstormLight Rain
1:12 AM20 °C19 °C94 %1005.4 hPa4.8 kmSouth (190°)9.3 km/h1.52 mmRainLight Rain
1:52 AM19.4 °C17.8 °C90 %1005.1 hPa4.8 kmSSE (160°)7.4 km/h3.56 mmRainRain
2:52 AM18.9 °C17.8 °C93 %1004.4 hPa16.1 kmCalm0.25 mmRainLight Rain
3:45 AM19 °C18 °C94 %1004.7 hPa11.3 kmSSE (150°)7.4 km/h0.51 mmRainLight Rain
3:52 AM18.9 °C17.8 °C93 %1004.1 hPa8 kmSSE (150°)5.6 km/h0.76 mmRainLight Rain
3:59 AM19 °C18 °C94 %1004.7 hPa2.9 kmSSE (150°)9.3 km/h2.79 mmRainHeavy Rain
4:09 AM18 °C18 °C100 %1004.7 hPa3.2 kmSouth (170°)9.3 km/h5.33 mmRainHeavy Rain
4:16 AM18 °C18 °C100 %1004.7 hPa1.9 kmSSE (150°)11.1 km/h8.89 mmRainHeavy Rain
4:30 AM18 °C17 °C94 %1004.7 hPa3.2 kmVariable7.4 km/h12.95 mmRainRain
4:35 AM19 °C17 °C88 %1004.7 hPa4.8 kmWest (270°)5.6 km/h12.95 mmRainLight Rain
4:52 AM19.4 °C17.8 °C90 %1004.1 hPa12.9 kmNNW (340°)5.6 km/h12.95 mmOvercast
5:22 AM19 °C18 °C94 %1004.4 hPa9.7 kmNE (40°)5.6 km/h0 mmRainLight Rain
5:32 AM19 °C18 °C94 %1004.4 hPa4 kmCalm2.03 mmRainRain
5:52 AM18.9 °C18.3 °C96 %1003.7 hPa2.9 kmCalm4.32 mmRainHeavy Rain
6:52 AM19.4 °C18.3 °C93 %1003.7 hPa4 kmSSE (160°)5.6 km/h0.51 mmRainLight Rain
7:52 AM20 °C18.3 °C90 %1003.7 hPa4.8 kmSouth (180°)5.6 km/h0.25 mmOvercast
8:52 AM20.6 °C18.3 °C87 %1003.4 hPa11.3 kmWSW (250°)11.1 km/h0 mmOvercast
9:35 AM21 °C18 °C83 %1004.1 hPa9.7 kmWSW (240°)5.6 km/h0.25 mmRainLight Rain
9:52 AM20.6 °C17.8 °C84 %1003.7 hPa16.1 kmSSW (210°)13 km/h0.25 mmMostly Cloudy
10:05 AM21 °C17 °C78 %1004.1 hPa16.1 kmSW (230°)14.8 km/hScattered Clouds
10:41 AM22 °C18 °C78 %1004.1 hPa16.1 kmSSW (200°)16.7 km/hMostly Cloudy
10:52 AM22.2 °C17.2 °C73 %1003.7 hPa16.1 kmWSW (240°)11.1 km/hMostly Cloudy
11:10 AM22 °C17 °C73 %1004.4 hPa16.1 kmSSW (210°)13 km/hOvercast
11:52 AM21.7 °C16.1 °C70 %1003.7 hPa16.1 kmWSW (240°)9.3 km/hThunderstormOvercast
12:13 PM19 °C17 °C88 %1004.1 hPa2.9 kmWest (260°)9.3 km/h1.27 mmRain-ThunderstormRain
12:34 PM19 °C17 °C88 %1005.1 hPa1.6 kmSSW (200°)11.1 km/h6.1 mmRain-ThunderstormLight Thunderstorms and Rain
12:38 PM19 °C17 °C88 %1005.4 hPa4 kmSSW (210°)16.7 km/h6.6 mmRain-ThunderstormLight Thunderstorms and Rain
12:48 PM18 °C16 °C88 %1005.4 hPa2.9 kmWSW (240°)13 km/h8.38 mmRain-ThunderstormHeavy Rain
12:52 PM18.3 °C16.1 °C87 %1005.4 hPa2.4 kmWSW (240°)16.7 km/h31.5 km/h8.89 mmRain-ThunderstormThunderstorms and Rain
1:03 PM18 °C16 °C88 %1005.8 hPa4.8 kmSW (230°)18.5 km/h33.3 km/h0.51 mmRain-ThunderstormLight Thunderstorms and Rain
1:13 PM18 °C16 °C88 %1005.8 hPa4.8 kmWSW (250°)16.7 km/h1.27 mmRainRain
1:52 PM18.3 °C15.6 °C84 %1004.7 hPa16.1 kmWNW (300°)9.3 km/h2.54 mmMostly Cloudy
2:52 PM19.4 °C16.1 °C81 %1005.1 hPa16.1 kmSW (220°)13 km/hOvercast
3:52 PM21.1 °C15.6 °C71 %1004.7 hPa16.1 kmWSW (240°)16.7 km/h27.8 km/hOvercast
4:03 PM22 °C15 °C64 %1005.1 hPa16.1 kmWSW (240°)13 km/hOvercast
4:52 PM22.8 °C13.3 °C55 %1004.4 hPa16.1 kmWest (270°)11.1 km/hMostly Cloudy
5:52 PM21.7 °C12.2 °C55 %1004.7 hPa16.1 kmWest (260°)20.4 km/h31.5 km/hOvercast
6:52 PM21.7 °C12.2 °C55 %1004.7 hPa16.1 kmWSW (250°)18.5 km/h29.6 km/hMostly Cloudy
7:52 PM20.6 °C12.2 °C58 %1005.4 hPa16.1 kmWest (270°)11.1 km/hOvercast
8:52 PM12.8 °C11.1 °C89 %1006.8 hPa16.1 kmNE (40°)11.1 km/hOvercast
9:11 PM13 °C11 °C88 %1007.5 hPa16.1 kmNE (50°)9.3 km/hOvercast
9:25 PM13 °C11 °C88 %1007.5 hPa16.1 kmNE (40°)11.1 km/hOvercast
9:52 PM12.2 °C10.6 °C90 %1007.8 hPa16.1 kmNE (50°)9.3 km/hOvercast
10:21 PM12 °C11 °C94 %1008.1 hPa8 kmNE (50°)9.3 km/hOvercast
10:52 PM11.7 °C10.6 °C93 %1007.8 hPa4.8 kmNE (40°)11.1 km/hOvercast
11:01 PM12 °C11 °C94 %1008.1 hPa4 kmNE (40°)5.6 km/hOvercast
11:08 PM12 °C11 °C94 %1008.1 hPa6.4 kmNNE (30°)9.3 km/hOvercast
11:52 PM11.7 °C10.6 °C93 %1008.5 hPa8 kmNE (50°)11.1 km/hOvercast
Hourly data recorded from KPWK, located 0 kilometers away from Chicago, Illinois







STORIES FROM OUR PARTNERS